User: anonymous   Login
Location: ??
(35.4032°N, 139.3073°E)
Time: 19:56:07
(UTC+00:00)
Language:

METEOR-M - Orbit

View from above orbital plane
View from above orbital plane
View from above satellite
View from above satellite

Ground track
Ground track

The orbit data is extracted from the following two-line orbital elements,

1 35865U 09049A   24172.16655472  .00000117  00000-0  71368-4 0  9999
2 35865  98.6333 133.4321 0001130 243.0471 117.0592 14.22717879765993
Epoch (UTC): 20 June 2024 03:59:50
Eccentricity: 0.0001130
inclination: 98.6333°
perigee height: 815 km
apogee height: 817 km
right ascension of ascending node: 133.4321°
argument of perigee: 243.0471°
revolutions per day: 14.22717879
mean anomaly at epoch: 117.0592°
orbit number at epoch: 76599

The dashed part of the orbit path shows where the satellite is in the earth's shadow,  

DLR